﻿_id,日時,平均風速(m/s),平均風向,最大瞬間風速(m/s),最大風速時風向,気温(℃),湿度(%),10分間移動積算雨量(mm),1時間移動積算雨量(mm),日雨量(mm),累計雨量(mm)
1,2021-04-19T00:00:00,0.1,静穏,0.5,東南東,4.1,94.8,0,0,1,18
2,2021-04-19T00:01:00,0.1,静穏,0.5,東南東,4.1,94.8,0,0,0,18
3,2021-04-19T00:02:00,0.1,静穏,0.5,東南東,4.2,95.1,0,0,0,18
4,2021-04-19T00:03:00,0.1,静穏,0.5,東南東,4.2,95,0,0,0,18
5,2021-04-19T00:04:00,0.1,静穏,0.5,東南東,4.3,95.2,0,0,0,18
6,2021-04-19T00:05:00,0.1,静穏,0.3,北東,4.2,95.2,0,0,0,18
7,2021-04-19T00:06:00,0.1,静穏,0.3,北東,4.2,95.2,0,0,0,18
8,2021-04-19T00:07:00,0.1,静穏,0.3,北東,4.2,95.1,0,0,0,18
9,2021-04-19T00:08:00,0.1,静穏,0.3,北東,4.2,95.1,0,0,0,18
10,2021-04-19T00:09:00,0.1,静穏,0.3,北東,4.1,95,0,0,0,18
11,2021-04-19T00:10:00,0.1,静穏,0.4,東南東,4.1,94.9,0,0,0,18
12,2021-04-19T00:11:00,0.1,静穏,0.4,東南東,4.2,95.1,0,0,0,18
13,2021-04-19T00:12:00,0.1,静穏,0.4,東南東,4.2,95.2,0,0,0,18
14,2021-04-19T00:13:00,0.1,静穏,0.4,東南東,4.1,95.1,0,0,0,18
15,2021-04-19T00:14:00,0.1,静穏,0.4,東南東,4.3,95.2,0,0,0,18
16,2021-04-19T00:15:00,0.1,静穏,0.4,東南東,4.2,95.3,0,0,0,18
17,2021-04-19T00:16:00,0.1,静穏,0.4,東南東,4.3,95.3,0,0,0,18
18,2021-04-19T00:17:00,0.1,静穏,0.4,東南東,4.1,95.2,0,0,0,18
19,2021-04-19T00:18:00,0.1,静穏,0.5,南西,3.9,94.6,0,0,0,18
20,2021-04-19T00:19:00,0.2,静穏,0.6,南南西,4,94.6,0,0,0,18
21,2021-04-19T00:20:00,0.2,静穏,0.6,南南西,3.9,94.7,0,0,0,18
22,2021-04-19T00:21:00,0.2,静穏,1.1,南西,3.9,94.8,0,0,0,18
23,2021-04-19T00:22:00,0.3,南南西,1.1,南西,4,95.1,0,0,0,18
24,2021-04-19T00:23:00,0.3,南西,1.1,南西,4,95.2,0,0,0,18
25,2021-04-19T00:24:00,0.3,南西,1.1,南西,4,95.2,0,0,0,18
26,2021-04-19T00:25:00,0.4,南西,1.1,南西,3.9,95,0,0,0,18
27,2021-04-19T00:26:00,0.4,南西,1.1,南西,3.8,94.9,0,0,0,18
28,2021-04-19T00:27:00,0.5,南西,1.1,南西,3.9,94.8,0,0,0,18
29,2021-04-19T00:28:00,0.5,南西,1.1,南西,3.8,95,0,0,0,18
30,2021-04-19T00:29:00,0.5,南西,1.1,南西,3.8,95,0,0,0,18
31,2021-04-19T00:30:00,0.5,南西,1.1,南西,3.8,95,0,0,0,18
32,2021-04-19T00:31:00,0.5,南西,1.4,南西,3.9,95.2,0,0,0,18
33,2021-04-19T00:32:00,0.5,南西,1.4,南西,3.9,95.2,0,0,0,18
34,2021-04-19T00:33:00,0.6,南西,1.4,南西,3.9,95.3,0,0,0,18
35,2021-04-19T00:34:00,0.6,南西,1.4,南西,4,95.3,0,0,0,18
36,2021-04-19T00:35:00,0.6,南西,1.4,南西,4,95.3,0,0,0,18
37,2021-04-19T00:36:00,0.6,南西,1.4,南西,4.1,95.4,0,0,0,18
38,2021-04-19T00:37:00,0.5,南西,1.4,南西,4,95.3,0,0,0,18
39,2021-04-19T00:38:00,0.5,南西,1.4,南西,4.1,95.3,0,0,0,18
40,2021-04-19T00:39:00,0.5,南西,1.4,南西,4,95.3,0,0,0,18
41,2021-04-19T00:40:00,0.4,南南西,1.4,南西,4,95.2,0,0,0,18
42,2021-04-19T00:41:00,0.4,南南西,0.9,南南西,3.8,95.2,0,0,0,18
43,2021-04-19T00:42:00,0.3,南,0.9,南南西,3.9,94.8,0,0,0,18
44,2021-04-19T00:43:00,0.3,南南東,0.9,南南西,4.1,95.2,0,0,0,18
45,2021-04-19T00:44:00,0.3,南東,0.9,南南西,4,95.3,0,0,0,18
46,2021-04-19T00:45:00,0.3,東南東,0.9,東,4,95.3,0,0,0,18
47,2021-04-19T00:46:00,0.3,東南東,0.9,東,4.1,95.3,0,0,0,18
48,2021-04-19T00:47:00,0.3,東,0.9,東,4,95.3,0,0,0,18
49,2021-04-19T00:48:00,0.4,東,0.9,東,3.9,95.1,0,0,0,18
50,2021-04-19T00:49:00,0.4,東,0.9,東,3.9,95.1,0,0,0,18
51,2021-04-19T00:50:00,0.4,東南東,0.9,東,3.8,94.9,0,0,0,18
52,2021-04-19T00:51:00,0.4,東南東,0.9,東,3.8,94.9,0,0,0,18
53,2021-04-19T00:52:00,0.4,南東,0.9,東,3.8,94.9,0,0,0,18
54,2021-04-19T00:53:00,0.4,南東,0.9,東,3.7,94.9,0,0,0,18
55,2021-04-19T00:54:00,0.3,南東,0.8,南東,3.8,95.1,0,0,0,18
56,2021-04-19T00:55:00,0.3,南南東,0.8,南東,3.9,95.2,0,0,0,18
57,2021-04-19T00:56:00,0.2,静穏,0.8,南東,3.9,95.3,0,0,0,18
58,2021-04-19T00:57:00,0.2,静穏,0.8,南東,3.9,95.3,0,0,0,18
59,2021-04-19T00:58:00,0.2,静穏,0.7,南,3.8,95.1,0,0,0,18
60,2021-04-19T00:59:00,0.1,静穏,0.7,南,3.7,94.7,0,0,0,18
61,2021-04-19T01:00:00,0.1,静穏,0.5,南南東,3.6,94.6,0,0,0,18
62,2021-04-19T01:01:00,0.1,静穏,0.7,南,3.7,94.7,0,0,0,18
63,2021-04-19T01:02:00,0.1,静穏,0.7,南,3.7,95,0,0,0,18
64,2021-04-19T01:03:00,0.2,静穏,0.7,南,3.7,94.9,0,0,0,18
65,2021-04-19T01:04:00,0.2,静穏,0.7,南,3.7,94.9,0,0,0,18
66,2021-04-19T01:05:00,0.2,静穏,0.7,南,3.9,95.2,0,0,0,18
67,2021-04-19T01:06:00,0.2,静穏,0.7,南,3.8,95.3,0,0,0,18
68,2021-04-19T01:07:00,0.2,静穏,0.7,南,3.8,95.1,0,0,0,18
69,2021-04-19T01:08:00,0.2,静穏,0.7,南,3.8,95.2,0,0,0,18
70,2021-04-19T01:09:00,0.2,静穏,0.7,南,3.7,95.1,0,0,0,18
71,2021-04-19T01:10:00,0.2,静穏,0.7,南,3.6,94.8,0,0,0,18
72,2021-04-19T01:11:00,0.2,静穏,0.7,南西,3.6,94.6,0,0,0,18
73,2021-04-19T01:12:00,0.2,静穏,0.7,南西,3.7,94.9,0,0,0,18
74,2021-04-19T01:13:00,0.2,静穏,0.7,南西,3.6,95,0,0,0,18
75,2021-04-19T01:14:00,0.2,静穏,0.7,南西,3.5,94.8,0,0,0,18
76,2021-04-19T01:15:00,0.2,静穏,0.7,南西,3.5,94.7,0,0,0,18
77,2021-04-19T01:16:00,0.2,静穏,0.7,南西,3.4,94.5,0,0,0,18
78,2021-04-19T01:17:00,0.2,静穏,0.7,東南東,3.4,94.5,0,0,0,18
79,2021-04-19T01:18:00,0.2,静穏,0.7,東南東,3.4,94.7,0,0,0,18
80,2021-04-19T01:19:00,0.3,南東,0.7,東南東,3.5,94.6,0,0,0,18
81,2021-04-19T01:20:00,0.4,南東,0.8,東南東,3.4,94.8,0,0,0,18
82,2021-04-19T01:21:00,0.4,南東,0.9,東南東,3.4,94.8,0,0,0,18
83,2021-04-19T01:22:00,0.4,南東,0.9,東南東,3.5,95,0,0,0,18
84,2021-04-19T01:23:00,0.5,南東,0.9,東南東,3.5,95.2,0,0,0,18
85,2021-04-19T01:24:00,0.5,東南東,1,東,3.5,95.2,0,0,0,18
86,2021-04-19T01:25:00,0.5,東南東,1,東,3.6,95.2,0,0,0,18
87,2021-04-19T01:26:00,0.6,東南東,1,東,3.5,95.2,0,0,0,18
88,2021-04-19T01:27:00,0.6,東南東,1.2,東,3.4,94.6,0,0,0,18
89,2021-04-19T01:28:00,0.7,東南東,1.2,東,3.4,94.4,0,0,0,18
90,2021-04-19T01:29:00,0.7,東,1.2,東,3.4,94.9,0,0,0,18
91,2021-04-19T01:30:00,0.7,東,1.2,東,3.6,95.1,0,0,0,18
92,2021-04-19T01:31:00,0.6,東,1.2,東,3.5,95.1,0,0,0,18
93,2021-04-19T01:32:00,0.6,東,1.2,東,3.6,95.2,0,0,0,18
94,2021-04-19T01:33:00,0.6,東,1.2,東,3.5,95.1,0,0,0,18
95,2021-04-19T01:34:00,0.7,東,1.6,東,3.4,94.8,0,0,0,18
96,2021-04-19T01:35:00,0.7,東,1.6,東,3.5,94.7,0,0,0,18
97,2021-04-19T01:36:00,0.8,東,1.6,東,3.6,95.1,0,0,0,18
98,2021-04-19T01:37:00,0.8,東,1.6,東,3.5,95.1,0,0,0,18
99,2021-04-19T01:38:00,0.8,東,1.6,東,3.5,95.1,0,0,0,18
100,2021-04-19T01:39:00,0.8,東,1.8,東,3.4,94.7,0,0,0,18
101,2021-04-19T01:40:00,0.9,東,2.3,東,3.6,94.9,0,0,0,18
102,2021-04-19T01:41:00,1,東,2.3,東,3.7,95.2,0,0,0,18
103,2021-04-19T01:42:00,1.1,東,2.3,東,3.7,95.3,0,0,0,18
104,2021-04-19T01:43:00,1.1,東,2.3,東,3.7,95.1,0,0,0,18
105,2021-04-19T01:44:00,1,東,2.3,東,3.7,95.1,0,0,0,18
106,2021-04-19T01:45:00,0.9,東,2.3,東,3.7,95.1,0,0,0,18
107,2021-04-19T01:46:00,0.8,東,2.3,東,3.7,95.1,0,0,0,18
108,2021-04-19T01:47:00,0.8,東,2.3,東,3.6,95,0,0,0,18
109,2021-04-19T01:48:00,0.7,東,2.3,東,3.7,94.9,0,0,0,18
110,2021-04-19T01:49:00,0.7,東,2.3,東,3.6,94.7,0,0,0,18
111,2021-04-19T01:50:00,0.5,東,1.7,東,3.6,94.7,0,0,0,18
112,2021-04-19T01:51:00,0.4,東,1.3,東,3.5,94.5,0,0,0,18
113,2021-04-19T01:52:00,0.3,東,1,東北東,3.5,94.4,0,0,0,18
114,2021-04-19T01:53:00,0.3,東,0.7,東南東,3.5,94.6,0,0,0,18
115,2021-04-19T01:54:00,0.2,静穏,0.7,東南東,3.4,94.5,0,0,0,18
116,2021-04-19T01:55:00,0.2,静穏,0.7,東南東,3.5,94.4,0,0,0,18
117,2021-04-19T01:56:00,0.2,静穏,0.7,東南東,3.5,94.6,0,0,0,18
118,2021-04-19T01:57:00,0.2,静穏,0.6,東南東,3.4,94.7,0,0,0,18
119,2021-04-19T01:58:00,0.2,静穏,0.6,東南東,3.6,94.6,0,0,0,18
120,2021-04-19T01:59:00,0.2,静穏,0.8,東,3.6,95,0,0,0,18
121,2021-04-19T02:00:00,0.2,静穏,0.8,東,3.6,95.1,0,0,0,18
122,2021-04-19T02:01:00,0.2,静穏,0.8,東,3.7,95.1,0,0,0,18
123,2021-04-19T02:02:00,0.2,静穏,0.8,東,3.7,95.1,0,0,0,18
124,2021-04-19T02:03:00,0.2,静穏,0.8,東,3.5,94.6,0,0,0,18
125,2021-04-19T02:04:00,0.2,静穏,0.8,東,3.5,94.3,0,0,0,18
126,2021-04-19T02:05:00,0.2,静穏,0.8,東,3.5,94.3,0,0,0,18
127,2021-04-19T02:06:00,0.2,静穏,0.8,東,3.5,94.6,0,0,0,18
128,2021-04-19T02:07:00,0.2,静穏,0.8,東,3.5,94.5,0,0,0,18
129,2021-04-19T02:08:00,0.2,静穏,0.8,東,3.5,94.6,0,0,0,18
130,2021-04-19T02:09:00,0.1,静穏,0.5,東北東,3.4,94.5,0,0,0,18
131,2021-04-19T02:10:00,0.1,静穏,0.3,北,3.4,94.3,0,0,0,18
132,2021-04-19T02:11:00,0.1,静穏,0.4,南南東,3.3,94.3,0,0,0,18
133,2021-04-19T02:12:00,0.1,静穏,0.5,南南東,3.2,94,0,0,0,18
134,2021-04-19T02:13:00,0.1,静穏,0.5,南南東,3.2,94.1,0,0,0,18
135,2021-04-19T02:14:00,0.1,静穏,0.6,東南東,3.3,94.4,0,0,0,18
136,2021-04-19T02:15:00,0.2,静穏,0.7,東南東,3.2,94.4,0,0,0,18
137,2021-04-19T02:16:00,0.2,静穏,0.7,東南東,3.2,94.4,0,0,0,18
138,2021-04-19T02:17:00,0.2,静穏,0.7,東南東,3.2,94.3,0,0,0,18
139,2021-04-19T02:18:00,0.2,静穏,0.7,東南東,3.1,94.4,0,0,0,18
140,2021-04-19T02:19:00,0.3,南南東,1,南南東,3.3,94.3,0,0,0,18
141,2021-04-19T02:20:00,0.4,南東,1,南南東,3.4,95,0,0,0,18
142,2021-04-19T02:21:00,0.3,南東,1,南南東,3.4,95.2,0,0,0,18
143,2021-04-19T02:22:00,0.3,南東,1,南南東,3.2,94.8,0,0,0,18
144,2021-04-19T02:23:00,0.3,南東,1,南南東,3,94.3,0,0,0,18
145,2021-04-19T02:24:00,0.3,東南東,1,南南東,3.1,94,0,0,0,18
146,2021-04-19T02:25:00,0.3,東南東,1,南南東,3.1,94.2,0,0,0,18
147,2021-04-19T02:26:00,0.3,東,1,南南東,3.1,94.3,0,0,0,18
148,2021-04-19T02:27:00,0.3,東北東,1,南南東,3.1,94.6,0,0,0,18
149,2021-04-19T02:28:00,0.3,北,1,南南東,3.2,94.8,0,0,0,18
150,2021-04-19T02:29:00,0.3,北西,0.9,西,3.3,95,0,0,0,18
151,2021-04-19T02:30:00,0.3,北西,1,西,3.2,94.9,0,0,0,18
152,2021-04-19T02:31:00,0.4,西北西,1,西,3.3,94.9,0,0,0,18
153,2021-04-19T02:32:00,0.4,西北西,1,西,3.3,95,0,0,0,18
154,2021-04-19T02:33:00,0.4,西北西,1,西,3.2,94.9,0,0,0,18
155,2021-04-19T02:34:00,0.5,西,1,西,3.3,94.9,0,0,0,18
156,2021-04-19T02:35:00,0.4,西,1,西,3.3,95,0,0,0,18
157,2021-04-19T02:36:00,0.4,西,1,西,3.3,95.1,0,0,0,18
158,2021-04-19T02:37:00,0.4,西,1,西,3.3,95.2,0,0,0,18
159,2021-04-19T02:38:00,0.3,西,1,西,3.3,95,0,0,0,18
160,2021-04-19T02:39:00,0.3,西,1,西,3.3,94.8,0,0,0,18
161,2021-04-19T02:40:00,0.2,静穏,0.8,西北西,3.3,94.9,0,0,0,18
162,2021-04-19T02:41:00,0.2,静穏,0.8,西北西,3.3,94.8,0,0,0,18
163,2021-04-19T02:42:00,0.2,静穏,0.7,西南西,3.2,94.7,0,0,0,18
164,2021-04-19T02:43:00,0.1,静穏,0.7,西南西,3.3,94.7,0,0,0,18
165,2021-04-19T02:44:00,0.1,静穏,0.6,東北東,3.3,95,0,0,0,18
166,2021-04-19T02:45:00,0.1,静穏,0.6,東北東,3.3,94.9,0,0,0,18
167,2021-04-19T02:46:00,0.1,静穏,0.6,東北東,3.3,95.1,0,0,0,18
168,2021-04-19T02:47:00,0.1,静穏,0.6,東北東,3.2,94.7,0,0,0,18
169,2021-04-19T02:48:00,0.1,静穏,0.6,東北東,3.4,95,0,0,0,18
170,2021-04-19T02:49:00,0.1,静穏,0.6,東北東,3.2,95,0,0,0,18
171,2021-04-19T02:50:00,0.1,静穏,0.6,東北東,3.1,94.5,0,0,0,18
172,2021-04-19T02:51:00,0.1,静穏,0.5,北東,3.1,94.5,0,0,0,18
173,2021-04-19T02:52:00,0.1,静穏,0.5,北東,3.2,94.8,0,0,0,18
174,2021-04-19T02:53:00,0.1,静穏,0.5,北東,3.3,95,0,0,0,18
175,2021-04-19T02:54:00,0.1,静穏,0.5,北東,3.1,95,0,0,0,18
176,2021-04-19T02:55:00,0.1,静穏,0.5,北東,3.1,94.5,0,0,0,18
177,2021-04-19T02:56:00,0.1,静穏,0.5,北西,3.1,94.5,0,0,0,18
178,2021-04-19T02:57:00,0.1,静穏,0.5,北西,3.1,94.6,0,0,0,18
179,2021-04-19T02:58:00,0.1,静穏,0.5,北西,3.1,94.8,0,0,0,18
180,2021-04-19T02:59:00,0.1,静穏,0.5,北西,3.3,95,0,0,0,18
181,2021-04-19T03:00:00,0.1,静穏,0.5,北西,3.4,95.4,0,0,0,18
182,2021-04-19T03:01:00,0.1,静穏,0.5,北西,3.2,95.2,0,0,0,18
183,2021-04-19T03:02:00,0.1,静穏,0.5,北西,3.1,94.8,0,0,0,18
184,2021-04-19T03:03:00,0.1,静穏,0.5,北西,3.1,94.7,0,0,0,18
185,2021-04-19T03:04:00,0.1,静穏,0.5,北西,3.1,94.8,0,0,0,18
186,2021-04-19T03:05:00,0.1,静穏,0.5,北西,3.1,94.8,0,0,0,18
187,2021-04-19T03:06:00,0.1,静穏,0.5,南西,3.2,94.9,0,0,0,18
188,2021-04-19T03:07:00,0,静穏,0.5,南西,3.1,94.9,0,0,0,18
189,2021-04-19T03:08:00,0,静穏,0.5,南西,3.1,94.9,0,0,0,18
190,2021-04-19T03:09:00,0,静穏,0.5,南西,3,94.9,0,0,0,18
191,2021-04-19T03:10:00,0.1,静穏,0.5,南西,3.1,94.7,0,0,0,18
192,2021-04-19T03:11:00,0.1,静穏,0.5,東北東,3.1,94.8,0,0,0,18
193,2021-04-19T03:12:00,0.1,静穏,0.5,東北東,3.1,95.1,0,0,0,18
194,2021-04-19T03:13:00,0.1,静穏,0.5,東北東,3,94.8,0,0,0,18
195,2021-04-19T03:14:00,0.2,静穏,0.5,東北東,3,94.6,0,0,0,18
196,2021-04-19T03:15:00,0.2,静穏,0.5,東北東,3,94.8,0,0,0,18
197,2021-04-19T03:16:00,0.2,静穏,0.5,東北東,3,94.8,0,0,0,18
198,2021-04-19T03:17:00,0.2,静穏,0.5,東北東,3,94.8,0,0,0,18
199,2021-04-19T03:18:00,0.2,静穏,0.5,東北東,2.9,94.8,0,0,0,18
200,2021-04-19T03:19:00,0.2,静穏,0.5,東北東,2.8,94.6,0,0,0,18
201,2021-04-19T03:20:00,0.2,静穏,0.5,西北西,2.8,94.5,0,0,0,18
202,2021-04-19T03:21:00,0.2,静穏,0.5,西北西,2.9,94.7,0,0,0,18
203,2021-04-19T03:22:00,0.2,静穏,0.5,西北西,2.8,95,0,0,0,18
204,2021-04-19T03:23:00,0.2,静穏,0.5,西北西,2.7,94.6,0,0,0,18
205,2021-04-19T03:24:00,0.2,静穏,0.5,西北西,2.8,94.5,0,0,0,18
206,2021-04-19T03:25:00,0.2,静穏,0.5,西北西,2.7,94.7,0,0,0,18
207,2021-04-19T03:26:00,0.2,静穏,0.5,西北西,2.7,94.5,0,0,0,18
208,2021-04-19T03:27:00,0.2,静穏,0.5,西北西,2.7,94.7,0,0,0,18
209,2021-04-19T03:28:00,0.2,静穏,0.5,西北西,2.7,94.8,0,0,0,18
210,2021-04-19T03:29:00,0.1,静穏,0.5,南南西,2.7,94.9,0,0,0,18
211,2021-04-19T03:30:00,0.1,静穏,0.5,南南西,2.8,95,0,0,0,18
212,2021-04-19T03:31:00,0.1,静穏,0.5,南南西,2.7,95.1,0,0,0,18
213,2021-04-19T03:32:00,0.1,静穏,0.4,南,2.5,94.5,0,0,0,18
214,2021-04-19T03:33:00,0.1,静穏,0.4,南,2.5,94.4,0,0,0,18
215,2021-04-19T03:34:00,0.1,静穏,0.5,南南西,2.5,94.5,0,0,0,18
216,2021-04-19T03:35:00,0.2,静穏,0.5,南南西,2.5,94.7,0,0,0,18
217,2021-04-19T03:36:00,0.2,静穏,0.5,南南西,2.6,94.9,0,0,0,18
218,2021-04-19T03:37:00,0.3,南,0.5,南南西,2.7,95.2,0,0,0,18
219,2021-04-19T03:38:00,0.3,南,0.5,南南西,2.7,95.2,0,0,0,18
220,2021-04-19T03:39:00,0.3,南南西,0.7,西南西,2.7,95.2,0,0,0,18
221,2021-04-19T03:40:00,0.3,南南西,0.8,南西,2.7,95.1,0,0,0,18
222,2021-04-19T03:41:00,0.3,南南西,0.8,南西,2.7,95.1,0,0,0,18
223,2021-04-19T03:42:00,0.3,南西,0.8,南西,2.7,95.2,0,0,0,18
224,2021-04-19T03:43:00,0.3,南西,0.8,南西,2.7,95.2,0,0,0,18
225,2021-04-19T03:44:00,0.3,南西,0.8,南西,2.7,95.1,0,0,0,18
226,2021-04-19T03:45:00,0.3,南西,0.8,南西,2.7,95.1,0,0,0,18
227,2021-04-19T03:46:00,0.2,静穏,0.8,南西,2.8,95.2,0,0,0,18
228,2021-04-19T03:47:00,0.2,静穏,0.8,南西,2.7,95.2,0,0,0,18
229,2021-04-19T03:48:00,0.2,静穏,0.8,南西,2.8,95.1,0,0,0,18
230,2021-04-19T03:49:00,0.1,静穏,0.8,南西,2.8,95.2,0,0,0,18
231,2021-04-19T03:50:00,0.1,静穏,0.5,西,2.8,95.3,0,0,0,18
232,2021-04-19T03:51:00,0.1,静穏,0.5,西,2.8,95.2,0,0,0,18
233,2021-04-19T03:52:00,0.1,静穏,0.5,西,2.8,95.1,0,0,0,18
234,2021-04-19T03:53:00,0.1,静穏,0.5,西,2.7,95,0,0,0,18
235,2021-04-19T03:54:00,0,静穏,0.3,西南西,2.8,95.1,0,0,0,18
236,2021-04-19T03:55:00,0,静穏,0.3,西南西,2.8,95.3,0,0,0,18
237,2021-04-19T03:56:00,0,静穏,0.1,南南西,2.7,95.2,0,0,0,18
238,2021-04-19T03:57:00,0,静穏,0,南南東,2.7,95,0,0,0,18
239,2021-04-19T03:58:00,0,静穏,0,南南東,2.6,94.8,0,0,0,18
240,2021-04-19T03:59:00,0,静穏,0,南南東,2.6,94.9,0,0,0,18
241,2021-04-19T04:00:00,0,静穏,0,南南東,2.7,95.1,0,0,0,18
242,2021-04-19T04:01:00,0,静穏,0.1,北東,2.6,95.2,0,0,0,18
243,2021-04-19T04:02:00,0,静穏,0.5,北北東,2.5,94.8,0,0,0,18
244,2021-04-19T04:03:00,0,静穏,0.5,北北東,2.6,94.8,0,0,0,18
245,2021-04-19T04:04:00,0,静穏,0.5,北北東,2.7,95.2,0,0,0,18
246,2021-04-19T04:05:00,0,静穏,0.5,北北東,2.6,95.1,0,0,0,18
247,2021-04-19T04:06:00,0,静穏,0.5,北北東,2.6,95,0,0,0,18
248,2021-04-19T04:07:00,0,静穏,0.5,北北東,2.6,94.9,0,0,0,18
249,2021-04-19T04:08:00,0.1,静穏,0.6,東北東,2.6,94.9,0,0,0,18
250,2021-04-19T04:09:00,0.1,静穏,0.6,東北東,2.8,95.3,0,0,0,18
